Flag for Sweden Weather past 2 weeks in Norrköping, Sweden

39 °F


Feels Like: 31 °F
Forecast: 32 / 36 °F
Wind: 14 mph from West

Location: Norrkoping Airport

Current Time: Nov 30, 2015 at 6:13:30 PM

Latest Report: Nov 30, 2015 at 5:20 PM

Visibility: 10 mi

Pressure: 29.21 "Hg

Humidity: 81%

Dew point: 34 °F

Location of NorrköpingLocation

Historic Weather in Norrköping — Graph


Norrköping temperature yesterday

Maximum temperature yesterday: 41 °F (at 11:50 AM)
Minimum temperature yesterday: 34 °F (at 3:20 AM)
Average temperature yesterday: 37 °F

Past Weeks' High & Low Weather Summary

High48 °F (Nov 27, 11:20 AM)100% (Nov 15, 5:50 PM)29.95 "Hg (Nov 15, 5:50 PM)
Low14 °F (Nov 23, 5:20 AM)69% (Nov 22, 2:20 PM)28.68 "Hg (Nov 30, 1:50 AM)
Average35 °F92%29.51 "Hg
* Reported Nov 15 4:20 PM — Nov 30 4:50 PM, Norrköping, Weather by CustomWeather, © 2015

Note: Actual official high and low records may vary slightly from our data, if they occured in-between our weather recording intervals... More about our weather records


Norrköping weather history for previous 24 hours

Time TempWeatherWind HumidityBarometerVisibility
4:50 PM
Mon, Nov 30
39 °FClear.15 mph81%29.18 "Hg10 mi
4:20 PM41 °FPassing clouds.17 mph76%29.18 "HgN/A
3:50 PM41 °FPassing clouds.17 mph76%29.15 "HgN/A
3:20 PM41 °FPassing clouds.16 mph76%29.15 "HgN/A
2:50 PM41 °FPartly sunny.20 mph76%29.15 "HgN/A
2:20 PM41 °FScattered clouds.20 mph76%29.12 "HgN/A
1:50 PM41 °FPartly sunny.22 mph76%29.12 "HgN/A
1:20 PM41 °FPartly sunny.21 mph81%29.12 "HgN/A
12:50 PM41 °FPartly sunny.22 mph81%29.12 "HgN/A
12:20 PM41 °FPartly sunny.21 mph81%29.09 "HgN/A
11:50 AM39 °FPartly sunny.20 mph87%29.09 "HgN/A
11:20 AM39 °FScattered clouds.17 mph87%29.06 "HgN/A
10:50 AM39 °FPartly sunny.18 mph87%29.06 "HgN/A
10:20 AM39 °FScattered clouds.20 mph87%29.06 "HgN/A
9:50 AM37 °FPartly sunny.16 mph93%29.06 "HgN/A
9:20 AM36 °FScattered clouds.13 mph93%29.03 "HgN/A
8:50 AM36 °FScattered clouds.13 mph93%29.00 "HgN/A
8:20 AM37 °FPartly sunny.18 mph87%29.00 "HgN/A
7:50 AM37 °FPassing clouds.17 mph93%28.97 "HgN/A
7:20 AM37 °FPartly cloudy.13 mph93%28.97 "HgN/A
6:50 AM36 °FPartly cloudy.13 mph100%28.94 "HgN/A
6:20 AM36 °FPassing clouds.16 mph100%28.94 "HgN/A
5:50 AM36 °FMostly cloudy.14 mph93%28.91 "HgN/A
5:20 AM36 °FPartly cloudy.17 mph93%28.91 "HgN/A
4:20 AM34 °FLight snow. Overcast.22 mph100%28.85 "Hg4 mi
3:50 AM32 °FLight snow. Dense fog.22 mph100%28.80 "Hg1 mi
3:20 AM34 °FLight rain. Mostly cloudy.20 mph93%28.74 "Hg2 mi
1:50 AM37 °FOvercast.6 mph100%28.68 "HgN/A
1:20 AM41 °FMostly cloudy.6 mph93%28.71 "HgN/A
12:50 AM41 °FMostly cloudy.8 mph93%28.71 "HgN/A
11:50 PM
Sun, Nov 29
39 °FDrizzle. Mostly cloudy.9 mph100%28.80 "Hg4 mi
11:20 PM37 °FLight rain. Overcast.15 mph100%28.82 "Hg6 mi
10:50 PM37 °FRain. Overcast.13 mph100%28.88 "Hg2 mi
10:20 PM37 °FLight rain. Overcast.13 mph93%28.94 "HgN/A
9:50 PM37 °FMostly cloudy.12 mph93%29.00 "HgN/A
9:20 PM37 °FChilly.10 mph87%29.03 "HgN/A
8:50 PM37 °FPassing clouds.10 mph87%29.06 "HgN/A
8:20 PM37 °FChilly.10 mph87%29.06 "HgN/A
7:50 PM37 °FChilly.8 mph87%29.09 "HgN/A
7:20 PM36 °FChilly.9 mph93%29.09 "HgN/A
6:50 PM36 °FChilly.9 mph93%29.12 "HgN/A
6:20 PM36 °FChilly.10 mph93%29.15 "HgN/A
Weather by CustomWeather, © 2015

See weather overviewHow to use our weather pages